FW0561 Weather Reports


time (UTC)temp
F
wind
direction
speed
knots
gust
knots
rain 1hr
in
rain 24hr
in
rain mn
in
humidity
%
barometer
mb
20260510204420 79 215 1.7 9.6 0.00 0.00 0.00 19 1020.6
20260510203832 78 201 3.5 12.2 0.00 0.00 0.00 25 1020.7
20260510203220 76 156 3.5 12.2 0.00 0.00 0.00 26 1020.8
20260510202620 76 165 2.6 8.7 0.00 0.00 0.00 29 1020.8
20260510202019 75 169 2.6 12.2 0.00 0.00 0.00 25 1020.9
20260510201420 75 177 4.3 15.6 0.00 0.00 0.00 28 1021.0
20260510200820 77 155 4.3 10.4 0.00 0.00 0.00 25 1020.8
20260510200220 79 155 0.0 4.3 0.00 0.00 0.00 15 1020.6
20260510195620 78 106 0.0 3.5 0.00 0.00 0.00 15 1020.6
20260510195020 77 133 0.0 8.7 0.00 0.00 0.00 14 1020.6
20260510194420 78 215 2.6 16.5 0.00 0.00 0.00 18 1020.8
20260510193819 80 291 0.0 11.3 0.00 0.00 0.00 15 1020.4
20260510193220 80 351 0.0 7.0 0.00 0.00 0.00 12 1020.6
20260510192619 80 78 0.0 11.3 0.00 0.00 0.00 11 1020.6
20260510192021 78 213 1.7 11.3 0.00 0.00 0.00 14 1020.7
20260510191420 78 101 0.0 7.8 0.00 0.00 0.00 17 1020.6
20260510190820 79 178 1.7 7.0 0.00 0.00 0.00 15 1020.6
20260510190220 79 174 0.0 2.6 0.00 0.00 0.00 16 1020.8
20260510185620 77 139 0.0 3.5 0.00 0.00 0.00 20 1020.9
20260510185032 76 214 1.7 7.0 0.00 0.00 0.00 16 1020.9
20260510184420 77 136 0.9 3.5 0.00 0.00 0.00 23 1021.0
20260510183820 77 159 0.0 3.5 0.00 0.00 0.00 23 1021.0
20260510183220 76 169 0.0 6.1 0.00 0.00 0.00 22 1021.3
20260510182620 76 117 1.7 5.2 0.00 0.00 0.00 21 1021.3
20260510182032 77 52 0.0 0.9 0.00 0.00 0.00 28 1021.4
20260510181420 77 114 0.0 5.2 0.00 0.00 0.00 27 1021.4
20260510180820 77 213 0.0 7.8 0.00 0.00 0.00 26 1021.3
20260510180219 77 343 0.0 10.4 0.00 0.00 0.00 27 1021.3
20260510175620 78 96 2.6 5.2 0.00 0.00 0.00 27 1021.3
20260510175045 77 9 0.0 3.5 0.00 0.00 0.00 28 1021.4
20260510174420 76 313 0.0 3.5 0.00 0.00 0.00 27 1021.6
20260510173832 76 218 0.0 6.1 0.00 0.00 0.00 29 1021.6
20260510173220 78 175 0.9 5.2 0.00 0.00 0.00 28 1021.6
20260510172620 77 123 0.0 6.1 0.00 0.00 0.00 28 1021.6
20260510172020 77 151 0.0 6.1 0.00 0.00 0.00 30 1021.7
20260510171420 76 269 0.0 7.0 0.00 0.00 0.00 32 1021.9
20260510170820 77 109 2.6 6.1 0.00 0.00 0.00 29 1021.9
20260510170219 76 82 0.0 8.7 0.00 0.00 0.00 32 1021.9
20260510165620 75 107 5.2 7.8 0.00 0.00 0.00 32 1022.0
20260510165020 76 78 5.2 9.6 0.00 0.00 0.00 32 1022.0
20260510164419 75 118 3.5 9.6 0.00 0.00 0.00 37 1022.1
20260510163820 75 101 0.9 6.1 0.00 0.00 0.00 38 1022.1
20260510163219 74 0 0.9 6.1 0.00 0.00 0.00 38 1022.1
20260510162620 73 98 0.9 7.8 0.00 0.00 0.00 40 1022.1
20260510162020 73 68 3.5 7.8 0.00 0.00 0.00 43 1022.3
20260510161420 73 72 0.0 7.0 0.00 0.00 0.00 42 1022.3
20260510160844 73 114 2.6 7.0 0.00 0.00 0.00 42 1022.3
20260510160219 72 99 1.7 7.0 0.00 0.00 0.00 47 1022.3
20260510155619 72 93 0.9 10.4 0.00 0.00 0.00 48 1022.4
20260510155020 71 174 2.6 8.7 0.00 0.00 0.00 49 1022.4
20260510154420 71 144 0.0 6.1 0.00 0.00 0.00 51 1022.4
20260510153819 70 171 2.6 5.2 0.00 0.00 0.00 54 1022.4
20260510153220 69 73 2.6 9.6 0.00 0.00 0.00 55 1022.2
20260510152620 69 85 0.0 6.1 0.00 0.00 0.00 56 1022.2
20260510152020 69 124 2.6 7.0 0.00 0.00 0.00 57 1022.3
20260510151420 69 119 1.7 7.0 0.00 0.00 0.00 57 1022.2
20260510150820 68 80 2.6 7.8 0.00 0.00 0.00 60 1022.3
20260510150219 68 84 2.6 6.1 0.00 0.00 0.00 62 1022.4
20260510145619 68 68 0.9 4.3 0.00 0.00 0.00 59 1022.4
20260510145032 67 182 0.0 4.3 0.00 0.00 0.00 57 1022.4
20260510144420 67 100 1.7 2.6 0.00 0.00 0.00 51 1022.4
20260510143820 67 123 0.0 2.6 0.00 0.00 0.00 49 1022.4
20260510143220 65 111 0.0 1.7 0.00 0.00 0.00 51 1022.6
20260510142619 65 99 0.0 2.6 0.00 0.00 0.00 51 1022.6
20260510142020 64 64 0.0 1.7 0.00 0.00 0.00 52 1022.7
20260510141420 64 77 0.0 1.7 0.00 0.00 0.00 53 1022.6
20260510140819 63 27 0.0 2.6 0.00 0.00 0.00 53 1022.6
20260510140219 62 256 0.0 2.6 0.00 0.00 0.00 54 1022.5
20260510135620 62 271 0.0 2.6 0.00 0.00 0.00 54 1022.4
20260510135032 62 308 0.0 3.5 0.00 0.00 0.00 54 1022.4
20260510134419 62 308 0.0 2.6 0.00 0.00 0.00 53 1022.4
20260510133819 61 0 0.0 0.0 0.00 0.00 0.00 54 1022.4
20260510133220 60 310 0.0 2.6 0.00 0.00 0.00 56 1022.4
20260510132632 59 324 1.7 3.5 0.00 0.00 0.00 57 1022.4
20260510132020 59 305 1.7 3.5 0.00 0.00 0.00 58 1022.3
20260510131432 57 284 0.0 3.5 0.00 0.00 0.00 60 1022.3
20260510130845 56 275 0.0 2.6 0.00 0.00 0.00 63 1022.3
20260510130219 54 280 0.0 4.3 0.00 0.00 0.00 65 1022.3
20260510125619 54 317 0.9 5.2 0.00 0.00 0.00 66 1022.1
20260510125020 54 309 1.7 4.3 0.00 0.00 0.00 65 1022.1
20260510124420 53 319 1.7 5.2 0.00 0.00 0.00 67 1022.0
20260510123820 52 308 1.7 4.3 0.00 0.00 0.00 68 1022.0
20260510123220 52 279 0.0 5.2 0.00 0.00 0.00 68 1022.0
20260510122619 51 256 1.7 2.6 0.00 0.00 0.00 68 1021.9
20260510122020 50 294 0.0 3.5 0.00 0.00 0.00 68 1021.8
20260510121419 49 287 1.7 5.2 0.00 0.00 0.00 71 1021.8
20260510120820 49 309 1.7 5.2 0.00 0.00 0.00 72 1021.8
20260510120220 49 285 1.7 3.5 0.00 0.00 0.00 74 1021.8
20260510115619 49 288 0.9 4.3 0.00 0.00 0.00 73 1021.6
20260510115020 48 312 1.7 5.2 0.00 0.00 0.00 74 1021.6
20260510114419 49 295 1.7 6.1 0.00 0.00 0.00 72 1021.5
20260510113819 48 294 3.5 6.1 0.00 0.00 0.00 72 1021.6
20260510113232 48 327 1.7 6.1 0.00 0.00 0.00 72 1021.6
20260510112632 48 324 1.7 5.2 0.00 0.00 0.00 72 1021.5
20260510112019 48 324 1.7 5.2 0.00 0.00 0.00 71 1021.7
20260510111419 48 315 2.6 5.2 0.00 0.00 0.00 69 1021.6
20260510110820 49 297 2.6 5.2 0.00 0.00 0.00 68 1021.6
20260510110220 49 281 2.6 7.0 0.00 0.00 0.00 67 1021.5
20260510105710 49 308 2.6 6.1 0.00 0.00 0.00 64 1021.5
20260510105020 49 276 2.6 6.1 0.00 0.00 0.00 63 1021.5
20260510104419 50 279 1.7 6.1 0.00 0.00 0.00 61 1021.5
20260510103820 50 307 1.7 6.1 0.00 0.00 0.00 62 1021.3
20260510103220 49 284 2.6 6.1 0.00 0.00 0.00 63 1021.3
20260510102620 48 326 2.6 4.3 0.00 0.00 0.00 70 1021.3
20260510102020 47 296 0.9 5.2 0.00 0.00 0.00 69 1021.3
20260510101420 47 263 1.7 4.3 0.00 0.00 0.00 65 1021.2
20260510100820 48 280 0.9 5.2 0.00 0.00 0.00 62 1021.2
20260510100219 48 284 1.7 6.1 0.00 0.00 0.00 62 1021.2
20260510095620 48 292 1.7 5.2 0.00 0.00 0.00 63 1021.2
20260510095019 48 302 1.7 5.2 0.00 0.00 0.00 64 1021.2
20260510094420 47 297 2.6 5.2 0.00 0.00 0.00 64 1021.1
20260510093819 47 290 1.7 5.2 0.00 0.00 0.00 67 1021.2
20260510093219 47 300 2.6 4.3 0.00 0.00 0.00 66 1021.1
20260510092620 47 300 1.7 3.5 0.00 0.00 0.00 64 1021.1
20260510092019 48 294 1.7 4.3 0.00 0.00 0.00 63 1021.1
20260510091420 48 294 1.7 5.2 0.00 0.00 0.00 59 1021.1
20260510090820 48 274 1.7 5.2 0.00 0.00 0.00 57 1021.0
20260510090232 48 264 1.7 4.3 0.00 0.00 0.00 57 1020.9
20260510085619 47 257 1.7 3.5 0.00 0.00 0.00 60 1020.9
20260510085020 47 266 1.7 4.3 0.00 0.00 0.00 61 1020.9
20260510084419 47 308 1.7 5.2 0.00 0.00 0.00 61 1021.0
20260510083819 46 298 2.6 5.2 0.00 0.00 0.00 64 1021.1
20260510083219 47 335 1.7 4.3 0.00 0.00 0.00 60 1021.1
20260510082645 48 272 1.7 3.5 0.00 0.00 0.00 61 1021.1
20260510082019 48 253 0.0 5.2 0.00 0.00 0.00 59 1020.9
20260510081419 48 265 1.7 4.3 0.00 0.00 0.00 61 1020.9
20260510080820 47 297 0.9 2.6 0.00 0.00 0.00 62 1020.9
20260510080220 47 307 0.9 2.6 0.00 0.00 0.00 61 1020.9
20260510075619 47 298 1.7 2.6 0.00 0.00 0.00 62 1020.9
20260510075020 47 248 0.9 3.5 0.00 0.00 0.00 63 1020.9
20260510074419 48 278 1.7 2.6 0.00 0.00 0.00 64 1020.8
20260510073819 47 274 0.9 3.5 0.00 0.00 0.00 68 1020.9
20260510073219 47 271 1.7 2.6 0.00 0.00 0.00 69 1020.9
20260510072619 48 284 0.9 2.6 0.00 0.00 0.00 69 1020.9
20260510072020 47 278 0.9 2.6 0.00 0.00 0.00 74 1020.9
20260510071419 47 287 0.9 2.6 0.00 0.00 0.00 74 1020.8
20260510070821 47 286 1.7 2.6 0.00 0.00 0.00 76 1020.8
20260510070219 47 260 0.9 2.6 0.00 0.00 0.00 74 1020.8
20260510065619 48 233 0.9 2.6 0.00 0.00 0.00 74 1020.8
20260510065020 48 336 0.0 2.6 0.00 0.00 0.00 71 1020.6
20260510064420 48 350 0.9 3.5 0.00 0.00 0.00 72 1020.6
20260510063820 47 4 0.0 3.5 0.00 0.00 0.00 74 1020.8
20260510063219 47 335 0.0 1.7 0.00 0.00 0.00 74 1020.9
20260510062620 48 192 0.0 1.7 0.00 0.00 0.00 71 1020.8
20260510062019 49 133 0.0 2.6 0.00 0.00 0.00 69 1020.8
20260510061444 50 73 0.0 2.6 0.00 0.00 0.00 67 1020.6
20260510060820 49 235 0.0 1.7 0.00 0.00 0.00 65 1020.6
20260510060219 51 0 1.7 1.7 0.00 0.00 0.00 62 1020.5
20260510055619 51 333 0.0 0.0 0.00 0.00 0.00 59 1020.6
20260510055020 52 333 0.0 2.6 0.00 0.00 0.00 56 1020.6
20260510054419 53 327 0.9 2.6 0.00 0.00 0.00 52 1020.5
20260510053819 52 244 0.0 1.7 0.00 0.00 0.00 49 1020.6
20260510053219 53 327 0.0 1.7 0.00 0.00 0.00 47 1020.6
20260510052619 52 0 0.0 1.7 0.00 0.00 0.00 48 1020.6
20260510052019 52 307 0.0 0.0 0.00 0.00 0.00 49 1020.6
20260510051420 53 307 0.0 0.9 0.00 0.00 0.00 48 1020.7
20260510050819 53 306 0.9 3.5 0.00 0.00 0.00 47 1020.7
20260510050219 52 268 0.0 2.6 0.00 0.00 0.00 47 1020.7
20260510045633 52 248 0.0 2.6 0.00 0.00 0.00 47 1020.6
20260510045032 53 272 0.0 1.7 0.00 0.00 0.00 47 1020.7
20260510044420 53 351 0.0 2.6 0.00 0.00 0.00 42 1020.7
20260510043820 53 0 1.7 3.5 0.00 0.00 0.00 44 1020.7
20260510043232 54 141 0.0 1.7 0.00 0.00 0.00 42 1020.7
20260510042619 55 185 0.0 0.0 0.00 0.00 0.00 42 1020.8
20260510042020 56 207 0.0 3.5 0.00 0.00 0.00 39 1020.7
20260510041419 56 253 0.0 2.6 0.00 0.00 0.00 30 1020.7
20260510040820 57 304 0.0 3.5 0.00 0.00 0.00 32 1020.5
20260510040219 56 213 0.0 1.7 0.00 0.00 0.00 33 1020.5
20260510035619 55 223 0.0 0.0 0.00 0.00 0.00 37 1020.4
20260510035019 57 220 0.0 0.9 0.00 0.00 0.00 33 1020.5
20260510034432 59 220 0.0 0.0 0.00 0.00 0.00 29 1020.4
20260510033819 60 220 0.0 2.6 0.00 0.00 0.00 27 1020.4
20260510033220 61 297 1.7 5.2 0.00 0.00 0.00 28 1020.3
20260510032632 61 273 1.7 5.2 0.00 0.00 0.00 27 1020.3
20260510032019 62 277 1.7 6.1 0.00 0.00 0.00 24 1020.3
20260510031420 62 279 1.7 6.1 0.00 0.00 0.00 27 1020.3
20260510030819 63 317 2.6 6.1 0.00 0.00 0.00 25 1020.1
20260510030220 64 297 2.6 7.8 0.00 0.00 0.00 28 1020.1
20260510025620 64 305 1.7 5.2 0.00 0.00 0.00 31 1020.1
20260510025020 66 284 1.7 6.1 0.00 0.00 0.00 31 1020.1
20260510024421 66 324 1.7 7.0 0.00 0.00 0.00 30 1020.1
20260510023819 67 305 2.6 7.8 0.00 0.00 0.00 31 1020.0
20260510023219 68 338 2.6 9.6 0.00 0.00 0.00 30 1019.8
20260510022619 68 301 2.6 8.7 0.00 0.00 0.00 28 1019.8
20260510022020 68 329 2.6 9.6 0.00 0.00 0.00 22 1019.8
20260510021420 68 313 1.7 8.7 0.00 0.00 0.00 21 1019.8
20260510020819 67 316 2.6 9.6 0.00 0.00 0.00 18 1019.6
20260510020219 67 317 1.7 6.1 0.00 0.00 0.00 17 1019.6
20260510015620 67 343 2.6 7.0 0.00 0.00 0.00 18 1019.3
20260510015045 67 322 2.6 7.0 0.00 0.00 0.00 19 1019.3
20260510014419 66 321 1.7 5.2 0.00 0.00 0.00 19 1019.2
20260510013819 67 319 1.7 5.2 0.00 0.00 0.00 21 1019.2
20260510013219 68 316 1.7 6.1 0.00 0.00 0.00 18 1019.0
20260510012632 67 327 1.7 4.3 0.00 0.00 0.00 21 1018.9
20260510012032 67 306 1.7 6.1 0.00 0.00 0.00 22 1018.9
20260510011445 69 303 2.6 6.1 0.00 0.00 0.00 20 1018.7
20260510010820 71 311 1.7 5.2 0.00 0.00 0.00 17 1018.7
20260510010220 73 289 1.7 7.8 0.00 0.00 0.00 17 1018.6
20260510005619 74 285 2.6 10.4 0.00 0.00 0.00 16 1018.6
20260510005019 75 273 1.7 7.0 0.00 0.00 0.00 15 1018.5
20260510004420 76 323 1.7 8.7 0.00 0.00 0.00 14 1018.5
20260510003845 76 320 2.6 7.0 0.00 0.00 0.00 14 1018.4
20260510003220 76 311 3.5 12.2 0.00 0.00 0.00 15 1018.4
20260510002620 76 320 4.3 11.3 0.00 0.00 0.00 15 1018.2
20260510002019 77 321 4.3 12.2 0.00 0.00 0.00 15 1018.2
20260510001420 78 302 2.6 11.3 0.00 0.00 0.00 16 1018.2
20260510000832 79 283 3.5 11.3 0.00 0.00 0.00 16 1018.0
20260510000220 79 330 1.7 11.3 0.00 0.00 0.00 15 1018.0
20260509235619 80 301 3.5 10.4 0.00 0.00 0.00 16 1018.0
20260509235019 80 297 1.7 9.6 0.00 0.00 0.00 17 1018.0
20260509234420 81 285 2.6 8.7 0.00 0.00 0.00 17 1018.0
20260509233819 81 314 2.6 9.6 0.00 0.00 0.00 16 1017.9
20260509233232 82 345 1.7 7.8 0.00 0.00 0.00 16 1017.9
20260509232632 81 334 1.7 10.4 0.00 0.00 0.00 18 1017.9
20260509232019 80 284 2.6 10.4 0.00 0.00 0.00 17 1017.9
20260509231419 79 313 1.7 10.4 0.00 0.00 0.00 18 1017.9
20260509230819 80 302 3.5 10.4 0.00 0.00 0.00 19 1017.9
20260509230219 80 259 3.5 8.7 0.00 0.00 0.00 18 1017.9
20260509225619 79 258 1.7 12.2 0.00 0.00 0.00 19 1017.9
20260509225020 80 307 3.5 12.2 0.00 0.00 0.00 19 1017.8
20260509224431 79 290 3.5 10.4 0.00 0.00 0.00 20 1017.8
20260509223819 81 290 5.2 10.4 0.00 0.00 0.00 20 1017.8
20260509223220 82 279 1.7 13.9 0.00 0.00 0.00 21 1017.8
20260509222619 82 300 4.3 12.2 0.00 0.00 0.00 21 1017.8
20260509222044 81 0 2.6 13.9 0.00 0.00 0.00 21 1017.8
20260509221420 81 298 3.5 11.3 0.00 0.00 0.00 22 1017.8
20260509220832 81 225 3.5 11.3 0.00 0.00 0.00 21 1017.8
20260509220220 82 254 2.6 11.3 0.00 0.00 0.00 23 1017.8
20260509215620 82 281 1.7 7.8 0.00 0.00 0.00 22 1017.8
20260509215019 81 30 0.0 7.0 0.00 0.00 0.00 18 1017.9
20260509214419 79 7 1.7 11.3 0.00 0.00 0.00 19 1017.9
20260509213819 79 37 1.7 7.8 0.00 0.00 0.00 19 1018.0
20260509213219 78 336 0.0 8.7 0.00 0.00 0.00 18 1018.1
20260509212619 78 316 1.7 12.2 0.00 0.00 0.00 20 1018.0
20260509212020 79 331 3.5 14.8 0.00 0.00 0.00 20 1018.0
20260509211419 79 322 2.6 11.3 0.00 0.00 0.00 18 1018.2
20260509210819 80 351 0.9 8.7 0.00 0.00 0.00 18 1018.3
20260509210219 80 341 2.6 4.3 0.00 0.00 0.00 19 1018.3
20260509205619 79 329 0.0 12.2 0.00 0.00 0.00 22 1018.3
20260509205019 78 340 2.6 14.8 0.00 0.00 0.00 24 1018.5